Location: Hains Lake
(37.8540°N, 99.8578°W)
Time: 22:27:30
(UTC+00:00)

Vanguard 2 Rocket - Pass Details

Date: 22 April 2021
Orbit: 553 x 3326 km, 32.9° (Epoch: 05 May)

Event Time Altitude Azimuth Distance (km) Brightness Sun altitude
Rises 16:35:14 0° 198° (SSW) 5,252 10.9 52.7°
Reaches altitude 10° 16:39:02 10° 187° (S) 4,649 10.9 53.3°
Maximum altitude 16:50:06 28° 135° (SE) 4,257 11.6 55.0°
Drops below altitude 10° 17:04:40 10° 86° (E) 6,226 11.6 57.2°
Sets 17:10:47 0° 77° (ENE) 7,318 11.7 58.0°
